DMSP 5D-2 F13 DEB, 42261

Orbit data source: Space-Track

DMSP 5D-2 F13 DEB, 42261 is space debris in SSO originally from a launch on Fri, 24 Mar 1995 UTC launched from the Air Force Western Test Range (AFWTR). Debris objects in space refer to the collection of defunct objects orbiting the Earth. Examples of debris include non-operational satellites, rocket bodies, and fragments generated from explosions, collisions, or faulty payload assembly.

Loading next visibility...
Identifier
42261, 1995-015GB
Orbit
SSO
Country
Flag of USUS
Related business
Manufacturer
Unknown
Mission
Spacecraft
Bus & Motor
Unknown
Mass
Unknown
Launch date (UTC)
1995-03-24 (31 years ago)
Launch vehicle
Unknown
Launch site
Air Force Western Test Range (AFWTR)
Object type
Payload
Rocket body
Debris
Shape & HBR
Unknown shape, 0.1 m
Radar Cross Section
Small (<0.1 m²)

Expand to show TLE details & history
Last TLE update: 2 days ago

TLE from 2 days ago
0 DMSP 5D-2 F13 DEB
1 42261U 95015GB  26116.84713307  .00000761  00000-0  24710-3 0  9995
2 42261  98.3166 153.6650 0085639 142.6765 218.0415 14.39498743558650
Epoch: 2026-04-26T20:19Z
TLE epoch observation values (Epoch: 2026-04-26T20:19:52.297Z)
Latitude
-0.00007°
Longitude
-6.14817°
Altitude
811.461 km
Speed
7.422 km/s
True Right ascension
10h 14m 39s
True Declination
0° 00' 00"
Sunlit
Object was in full shadow at epoch
Visualization orbit readout
Latitude
Unknown
Longitude
Unknown
Altitude
Unknown
Speed
Unknown
Apparent Right ascension
Unknown
Apparent Declination
Unknown
Sunlit
N/A
Visualization observer readout
Local Sidereal Time
13:08:49
Azimuth
Unknown
Elevation
Unknown
Doppler factor
Unknown
Orbital elements
Apogee altitude
818.376 km
Perigee altitude
696.162 km
Semi-major axis
7,135.406 km
Eccentricity
0.00856
Inclination
98.3166°
RAAN
153.665°
Arg. of periapsis
142.6765°
True anomaly
217.44183°
Mean anomaly
218.0415°
Eccentric anomaly
217.74116°
Mean motion
3.60093 °/min
Orbital period
99.97 mins
BSTAR
0.0002471
Loading maneuver chart data...
Computing Atmospheric mass density...

Documentation

Showing up to 5 results
|